Theta_e
308 309 309 310 310 311 311 311 311 312 313 313 314 314 314 314 314 315 313 312 312 311 311 311 311 311 311 312 312 313 312 309 308 308 308 311 317 320 320 316 322 317 320 314 314 312 309 310 310 313 312 311 311 310 314 313 312 310 303 302 300 302 301 305 304 306 308 306 308 308 309 308 306 312 318 322 318 315 317 317 325 332 335 335 339 340 346 348
309 308 308 308 309 310 310 311 311 312 312 312 313 313 314 314 314 314 314 313 312 311 311 311 311 310 311 312 312 313 311 309 307 308 308 316 323 320 322 323 317 319 316 312 311 310 308 308 309 311 310 307 313 308 314 310 312 306 304 303 300 303 305 308 309 309 307 306 309 309 309 309 308 310 317 317 315 312 319 319 323 330 335 339 343 344 345 346
309 309 309 308 308 308 309 310 311 311 311 312 313 313 313 313 314 314 314 314 314 312 311 311 311 311 311 312 312 312 311 308 308 305 308 325 325 323 322 322 322 320 312 310 313 312 310 310 310 310 308 307 310 307 311 309 310 308 305 301 302 307 308 309 309 308 308 309 308 308 309 308 310 313 320 315 314 312 316 315 323 328 329 335 341 342 344 345
311 309 309 309 309 308 308 309 309 310 310 311 312 312 313 313 313 313 314 314 314 313 311 311 310 310 311 312 313 313 309 307 303 305 314 321 321 326 324 321 320 318 314 311 313 312 313 312 311 310 307 305 308 309 307 309 306 308 305 302 305 308 306 308 309 309 308 308 308 308 309 308 311 315 321 317 312 311 317 321 323 326 327 334 340 341 342 343
311 311 309 309 309 309 309 308 309 309 310 310 311 311 312 313 313 313 313 313 313 314 312 311 310 310 311 312 312 312 307 297 298 312 314 317 316 318 323 325 323 319 314 312 312 311 311 310 310 308 307 304 307 308 307 309 310 308 305 307 307 309 307 309 309 309 308 309 308 309 306 307 322 321 320 318 312 311 317 322 324 325 329 337 338 339 341 342
310 311 311 309 309 309 308 308 308 309 309 309 310 311 312 313 313 313 314 313 313 314 313 311 310 310 311 312 310 309 304 291 305 310 316 312 318 319 322 327 327 322 314 310 308 308 309 309 309 305 304 304 304 303 307 309 311 303 306 307 308 309 307 310 309 308 307 308 307 307 309 311 310 317 321 318 316 327 333 325 326 328 335 340 341 340 339 340
310 310 310 310 309 309 308 308 308 309 309 309 310 311 311 312 312 312 314 313 313 313 313 311 310 310 310 311 310 307 302 303 308 312 318 312 316 319 319 322 330 323 315 308 307 306 307 307 307 304 304 303 305 305 307 307 310 306 303 307 307 309 308 310 309 309 308 307 307 310 311 308 309 308 320 319 328 327 333 334 336 336 335 341 339 339 340 340
309 309 310 310 309 309 308 308 308 308 308 309 310 310 310 311 312 312 312 314 313 313 312 310 310 310 310 308 304 301 301 301 307 315 317 316 313 313 317 314 328 321 313 308 307 305 306 305 305 306 303 302 304 304 307 306 307 305 304 307 309 309 310 310 310 308 308 308 310 310 308 308 309 310 320 320 329 334 336 336 335 336 335 337 339 339 340 340
308 309 309 309 309 309 309 308 308 308 308 309 309 309 310 311 311 312 312 312 312 312 312 311 310 310 311 306 304 298 297 307 310 311 311 310 310 310 310 310 327 317 312 310 309 307 306 305 306 307 301 303 306 304 306 304 302 306 306 307 308 308 310 310 309 309 308 309 310 308 307 309 311 313 321 333 332 333 337 337 335 339 338 335 338 339 339 339
309 308 308 309 309 309 308 308 308 308 308 308 309 309 309 310 310 311 312 312 312 312 312 311 309 309 308 305 302 294 302 309 311 312 311 309 309 309 308 309 324 318 311 309 308 307 305 306 307 309 307 306 307 304 307 305 303 308 307 307 307 308 309 309 308 308 309 309 310 307 307 309 316 314 320 336 336 334 334 337 339 337 337 338 336 339 339 339
309 308 309 309 309 309 308 309 309 309 308 309 308 309 309 309 310 310 311 312 312 312 311 311 310 309 304 305 298 295 308 308 311 311 309 309 308 307 307 309 315 316 313 309 307 308 308 308 310 310 307 304 306 304 305 306 308 308 308 307 306 307 309 309 308 308 308 307 310 309 308 314 319 315 318 331 338 336 333 336 336 336 336 336 338 338 340 340
309 309 309 309 308 308 309 308 308 309 309 308 308 308 308 308 309 310 310 311 312 312 311 311 309 309 307 302 298 299 310 310 312 310 309 308 307 308 308 309 309 313 314 309 307 308 308 309 310 308 302 308 301 306 305 309 308 307 307 302 304 305 305 308 307 307 309 307 310 310 308 312 318 319 325 331 337 336 335 332 330 329 335 335 336 338 338 339
308 308 308 308 308 308 308 308 308 308 308 308 308 308 308 308 309 310 310 310 311 312 311 310 310 309 304 295 300 309 311 312 310 309 308 309 309 309 309 310 309 309 312 312 309 309 309 309 310 306 308 305 304 301 306 309 307 307 306 304 303 302 302 306 308 308 307 308 309 309 298 306 314 322 323 320 324 332 334 328 331 331 334 334 333 331 331 333
308 308 308 308 308 308 308 308 308 308 308 308 308 308 307 308 309 309 310 309 311 311 311 311 310 308 302 296 304 309 312 313 311 308 307 308 306 307 309 310 310 310 310 312 313 310 308 310 310 309 310 305 303 310 305 305 307 301 304 304 300 299 299 306 306 307 304 308 309 309 299 306 320 323 324 323 322 330 331 332 331 332 331 331 330 329 329 327
307 307 307 308 307 308 308 308 308 308 308 307 308 308 307 307 308 309 310 310 310 311 311 310 310 305 299 300 308 310 315 312 307 306 307 305 305 305 307 309 308 309 310 313 313 311 309 309 309 306 303 308 307 305 301 302 303 303 299 296 299 298 301 305 307 306 303 307 310 307 301 306 320 322 326 328 327 320 325 328 329 329 330 326 326 326 324 325
307 307 307 307 307 307 307 308 308 308 308 308 307 307 307 307 308 308 310 310 310 309 311 307 305 303 298 294 302 312 307 303 303 307 306 306 306 305 308 307 308 309 311 312 314 311 309 308 304 305 305 306 302 301 300 299 299 301 298 297 296 298 300 302 305 307 307 307 308 307 302 314 318 322 327 331 326 324 322 319 322 323 322 324 327 327 328 327
307 307 307 307 307 307 307 308 308 308 307 307 307 307 307 307 307 308 309 310 310 311 307 302 305 304 291 304 310 302 301 303 306 306 306 308 307 307 308 307 305 307 311 312 311 308 307 304 306 304 305 302 302 301 297 295 296 297 299 297 299 298 299 299 304 306 307 307 304 308 306 310 319 323 326 330 326 319 317 320 322 325 323 323 326 329 330 331
307 307 307 307 307 307 307 307 307 307 307 307 306 306 306 307 307 307 307 309 310 309 307 308 304 299 294 303 296 299 305 304 304 305 306 308 308 307 306 304 306 307 308 306 306 303 305 301 303 298 300 301 301 298 295 292 295 296 296 296 298 300 301 300 299 304 306 307 305 306 306 317 319 322 326 327 327 322 318 317 323 324 323 327 327 330 330 331
307 307 307 307 306 307 307 307 307 307 307 307 307 308 307 307 306 306 302 305 301 297 291 294 295 286 288 297 304 304 304 305 306 305 303 304 306 307 307 308 307 305 301 299 300 302 302 300 301 297 295 297 298 298 297 299 300 299 299 297 299 298 299 300 303 306 306 304 304 305 310 316 319 321 323 322 323 324 322 322 321 326 326 328 327 328 329 331
307 307 307 306 306 306 307 306 306 307 306 305 305 305 303 299 298 296 301 302 297 295 296 299 299 299 300 301 300 303 306 306 300 302 303 305 304 304 304 305 304 304 300 295 298 300 302 295 293 293 296 298 300 300 301 302 302 302 301 299 299 300 300 304 304 306 307 304 303 306 311 315 317 318 321 323 323 322 320 318 321 323 326 327 327 331 331 330
307 307 306 306 306 306 306 306 306 306 305 306 304 299 291 294 288 287 294 298 299 299 297 298 300 299 298 301 303 302 299 299 301 301 302 307 305 303 300 303 301 297 298 299 298 301 301 294 295 297 299 301 301 302 302 302 303 302 300 299 299 301 299 304 303 305 307 304 303 309 310 313 316 318 321 323 322 320 321 319 321 322 325 326 327 327 327 326
307 307 306 306 306 306 306 306 305 305 305 306 302 298 297 299 301 302 297 289 297 299 299 299 301 299 303 302 305 304 303 297 298 301 305 306 303 298 300 300 299 295 299 299 298 296 295 293 297 300 302 303 302 302 302 301 301 301 300 299 298 300 303 304 305 306 306 305 305 309 308 309 314 318 321 321 321 322 324 324 323 324 324 325 326 327 326 327
306 306 306 306 306 306 306 306 305 305 306 303 300 299 298 302 305 307 304 296 293 298 297 297 296 296 298 303 304 306 298 295 294 299 301 304 301 300 300 298 298 298 298 298 294 294 292 295 299 302 302 301 301 301 301 301 302 301 301 299 297 301 300 297 304 306 306 305 309 310 308 311 314 317 317 320 321 322 325 323 325 323 324 325 326 325 325 328
306 306 306 306 306 305 306 305 305 305 302 301 300 300 305 306 306 305 299 289 289 294 296 297 298 298 297 297 303 302 298 297 297 296 304 302 299 302 300 299 298 298 295 297 297 294 294 299 302 302 301 300 299 300 299 300 298 301 301 300 299 300 302 302 302 306 308 308 313 310 310 310 313 309 315 320 322 323 324 323 325 327 328 327 329 329 329 328
306 306 306 306 306 306 305 304 302 302 304 300 300 303 305 305 306 305 296 291 290 290 299 298 300 299 300 307 305 298 300 299 299 301 303 302 301 300 299 302 300 295 297 298 298 296 297 302 303 301 300 300 300 298 299 300 297 299 301 302 301 303 303 303 305 303 301 301 309 309 299 301 308 314 315 319 319 319 321 322 324 325 325 325 325 326 328 330
305 306 306 305 305 304 304 299 300 302 301 297 299 303 304 306 306 305 295 284 279 288 295 287 300 293 305 298 301 300 301 294 301 302 304 303 307 302 301 298 301 295 298 297 297 298 298 302 301 300 299 299 299 298 300 301 298 297 298 303 303 304 302 303 302 301 296 295 304 310 298 294 307 307 312 316 317 319 322 322 321 324 325 326 327 328 327 327
306 306 306 305 305 303 300 296 302 303 295 297 304 306 303 305 309 301 288 280 276 288 287 294 294 297 302 299 299 301 286 290 302 302 301 305 301 306 298 297 299 301 301 301 297 294 300 300 300 300 299 298 297 297 300 301 298 296 303 303 302 302 302 303 303 302 300 305 308 308 304 298 299 306 311 316 314 314 315 318 321 323 325 325 327 328 328 328
306 305 305 305 304 303 301 304 301 298 299 300 305 305 305 304 306 303 286 270 273 293 287 292 295 304 300 299 301 295 296 299 292 297 302 304 304 302 300 298 297 298 300 298 289 298 300 297 298 298 298 297 296 300 302 302 298 300 303 303 303 302 302 304 304 302 301 301 299 303 305 297 298 306 313 316 313 314 316 315 317 323 324 325 326 326 328 328
305 305 304 304 304 304 306 304 301 299 304 305 304 306 307 306 302 290 280 270 288 289 302 290 304 298 297 299 296 297 296 299 292 297 301 304 305 303 296 299 300 300 302 300 294 298 299 300 300 300 298 295 300 301 302 301 298 303 304 305 306 306 306 306 303 301 300 298 294 301 303 295 296 304 305 311 309 311 315 318 320 323 323 324 324 326 327 326
305 304 304 304 304 304 304 304 301 306 305 307 305 305 306 302 291 278 274 268 292 282 291 294 292 291 295 293 293 295 293 296 298 298 299 298 301 303 303 306 301 300 298 300 299 299 301 304 303 300 298 300 300 302 302 302 302 306 303 301 302 304 303 304 302 301 299 291 294 302 304 300 292 305 307 306 306 312 312 317 321 323 324 325 326 324 324 324
305 304 303 303 301 303 303 298 301 305 305 307 304 303 302 294 281 276 270 280 290 289 293 292 290 295 292 290 288 294 293 295 296 296 293 298 298 300 301 298 304 299 298 297 296 300 300 300 299 300 303 303 303 300 303 303 304 303 301 298 298 298 302 301 299 300 291 289 297 302 303 303 292 298 307 310 312 313 312 314 318 320 321 323 324 324 323 324
305 304 303 304 304 305 299 298 304 307 305 304 302 297 293 278 282 272 274 293 278 284 287 288 292 292 291 293 291 291 290 294 296 294 292 293 294 294 296 294 295 290 290 292 291 299 297 297 300 300 304 302 300 298 299 301 302 301 300 298 293 291 293 288 294 288 289 290 298 301 302 299 297 301 307 311 311 310 312 314 319 320 321 322 323 322 322 324
305 304 305 305 305 304 304 306 308 308 308 304 298 294 283 277 271 279 279 285 278 287 286 293 290 291 292 291 290 292 294 291 296 294 295 295 294 295 298 299 299 297 288 293 292 293 295 299 298 298 300 303 301 295 294 294 298 298 297 295 292 288 287 284 288 291 292 296 301 300 303 297 302 303 309 310 312 313 316 318 319 321 322 322 321 322 322 323
305 305 305 306 306 304 306 307 306 307 305 303 296 287 282 274 275 285 281 283 282 289 290 288 291 292 291 288 290 292 288 294 293 293 294 292 293 291 294 299 299 298 298 295 290 292 287 288 293 296 293 301 300 299 298 297 297 298 301 299 295 294 289 283 288 285 288 292 296 301 296 293 295 300 310 314 314 314 316 320 321 320 323 323 321 321 321 321
304 306 308 306 305 305 307 305 306 306 303 297 290 285 277 276 281 280 282 284 285 288 286 291 289 289 288 290 292 292 294 290 294 293 292 291 290 292 292 294 299 300 299 291 295 293 293 292 296 300 300 301 298 301 302 299 298 299 300 301 296 295 299 290 292 292 292 292 292 295 294 300 301 312 315 314 314 316 316 320 320 320 319 322 320 319 318 319
304 306 307 304 302 304 306 307 306 306 301 293 285 280 278 281 279 284 282 287 287 285 285 289 290 287 286 288 291 290 295 292 293 293 291 293 294 292 296 298 298 300 297 292 296 291 294 291 298 299 301 299 300 302 301 302 290 296 298 294 297 304 301 293 293 299 294 292 289 296 297 303 309 309 314 311 312 314 318 318 320 320 319 321 319 318 318 319
304 305 302 302 302 305 306 306 305 303 299 291 283 278 285 285 288 286 289 285 286 287 286 281 284 285 285 286 287 288 292 294 292 292 289 294 292 295 295 298 302 300 301 299 295 300 292 293 297 297 295 300 303 303 302 302 302 298 293 297 303 305 303 297 288 291 290 287 288 296 294 296 298 294 309 311 310 313 316 316 319 320 319 318 317 317 318 320
302 302 301 300 302 306 307 306 304 301 296 288 282 284 290 284 293 291 294 291 290 289 286 284 288 290 286 287 285 289 292 290 290 292 290 293 290 299 296 297 301 301 301 303 297 297 300 291 295 298 298 300 302 301 299 302 303 299 297 304 296 290 290 297 292 285 285 285 288 293 296 296 298 299 304 307 308 311 315 318 318 317 317 317 317 318 319 321
303 300 296 301 305 307 307 306 302 297 291 284 283 282 287 287 294 293 294 293 292 290 286 287 286 289 290 287 289 292 291 288 291 291 289 291 289 297 297 299 298 302 302 302 298 300 301 291 292 299 298 299 299 298 290 295 301 303 304 299 302 300 296 292 292 295 293 286 287 289 295 290 301 305 305 306 308 311 313 311 317 317 317 317 317 318 319 320
299 295 293 304 306 308 309 306 299 294 287 281 285 285 292 287 291 294 294 293 290 289 288 291 292 288 290 291 292 290 292 293 291 292 293 293 293 298 297 301 299 300 302 302 299 301 296 301 288 295 300 298 292 296 294 296 294 295 297 296 297 300 302 300 301 295 292 288 288 288 288 295 302 308 308 307 308 312 313 315 317 317 317 317 318 318 319 319
301 294 295 304 305 307 305 301 292 287 285 288 290 287 289 286 290 291 294 296 293 295 291 291 291 290 291 290 290 294 291 293 292 292 293 293 294 288 299 299 301 299 302 300 299 300 295 296 290 293 293 292 294 299 299 299 298 297 296 295 297 295 294 290 289 299 297 293 288 287 286 297 305 311 311 310 310 311 314 315 315 318 318 318 318 319 319 319
296 288 293 305 306 306 298 288 289 292 288 285 285 289 286 292 289 291 293 295 294 293 297 295 295 294 292 292 293 292 293 292 293 293 294 293 296 295 299 302 301 302 299 295 298 302 302 300 296 289 293 294 297 300 302 302 301 300 299 297 299 299 298 293 286 291 296 296 297 295 291 293 310 311 311 311 311 312 315 316 317 318 318 319 318 318 319 319
294 291 304 305 307 303 295 287 290 288 287 290 294 292 293 291 290 294 293 296 294 295 294 294 295 294 294 293 294 293 295 292 294 293 294 295 296 298 301 301 302 301 301 299 301 302 303 295 293 293 297 298 300 302 302 302 301 298 298 300 299 296 297 297 295 298 293 294 292 292 288 295 311 314 311 311 312 312 314 317 319 317 318 319 318 318 317 317
297 295 298 305 306 301 291 283 285 286 288 291 292 291 295 293 292 293 294 296 294 295 296 295 294 296 294 297 295 293 296 289 294 294 293 296 295 302 300 300 301 300 299 299 297 302 292 296 295 290 290 292 294 297 297 300 300 297 296 298 299 300 300 300 300 301 292 295 294 292 287 295 309 315 317 311 310 309 314 318 319 317 318 317 317 317 317 316
297 300 298 300 304 300 288 291 287 286 287 287 288 288 290 291 294 295 295 295 299 298 296 294 295 296 295 297 295 296 297 294 292 296 296 296 297 302 300 300 301 301 301 303 305 303 296 296 295 287 284 282 282 283 286 289 294 298 299 298 298 298 299 297 291 294 289 295 296 292 291 302 311 314 313 312 313 315 317 318 316 318 318 316 316 316 317 316
294 286 295 296 298 298 295 297 293 288 286 287 286 290 293 291 295 297 297 297 300 299 300 297 297 298 295 295 294 294 294 297 295 294 295 295 296 298 300 300 300 301 304 311 303 303 296 300 298 296 292 289 292 294 298 298 296 293 296 297 297 298 299 300 298 293 290 294 293 296 297 303 306 306 308 312 313 313 313 314 317 317 319 318 317 315 315 315
296 289 290 288 295 295 292 296 292 291 286 292 286 290 288 292 294 296 298 294 298 299 298 297 296 295 294 294 294 294 295 295 297 296 295 296 296 298 300 300 300 302 309 302 305 301 298 295 298 299 298 298 298 297 299 298 296 296 296 297 298 297 298 299 293 292 299 295 290 298 300 300 302 305 308 311 313 313 315 315 317 318 318 317 316 315 312 314
290 294 295 296 288 288 290 290 295 293 294 293 289 292 290 292 293 290 296 299 300 301 296 296 297 296 295 294 295 291 294 294 295 292 297 297 295 297 296 300 299 304 302 301 304 300 297 292 297 299 298 298 300 300 299 298 297 297 297 298 298 299 298 296 297 299 300 293 291 299 301 299 301 305 310 310 312 313 316 315 317 317 316 315 314 312 312 311
296 294 295 299 291 294 293 294 296 295 292 295 292 293 291 292 292 292 295 294 298 298 301 289 293 295 296 297 296 294 295 291 290 297 297 295 295 295 295 297 299 302 300 300 301 303 299 295 299 298 297 298 298 298 299 298 297 297 297 297 298 298 298 298 299 300 300 299 300 300 301 301 303 305 309 312 315 316 317 318 316 314 313 313 312 311 311 310
291 289 289 295 295 295 296 296 296 296 292 295 290 293 292 292 292 295 296 296 291 297 301 295 294 296 297 297 297 296 299 298 297 293 299 297 296 297 296 297 296 300 300 299 299 302 298 292 297 298 295 296 298 299 298 299 298 297 297 298 298 298 299 299 299 300 300 300 300 301 300 300 304 308 309 312 315 318 318 315 313 313 313 312 311 310 311 311
298 299 296 291 290 295 296 297 296 295 292 295 292 294 295 295 294 296 294 299 297 296 298 296 296 297 297 298 299 301 304 301 300 301 301 299 293 299 296 297 300 297 299 298 299 301 299 294 298 297 291 293 297 297 298 298 299 297 297 298 298 298 296 298 296 300 299 297 299 300 298 298 304 308 309 313 314 317 315 315 313 312 313 312 310 311 312 312
301 303 301 295 288 294 294 297 298 297 291 296 296 296 295 296 298 298 291 298 299 301 301 302 303 299 297 299 301 304 305 308 307 306 305 304 303 300 300 300 300 298 297 297 300 297 297 297 292 293 289 289 297 298 298 297 296 293 292 298 299 300 300 301 301 301 301 302 297 293 297 303 306 308 311 313 316 316 315 314 313 313 312 311 311 312 313 312
Wind_Speed
12 13 13 13 13 13 13 12 12 13 12 12 13 13 13 13 12 12 10 11 10 11 12 13 12 13 14 15 16 18 16 15 17 14 14 15 13 5 1 3 1 3 4 9 10 10 11 12 13 13 11 10 10 11 10 11 8 9 10 10 13 11 14 11 15 9 5 10 10 5 4 3 7 4 5 6 8 11 5 10 6 9 19 17 15 20 21 20
13 13 13 12 13 13 13 13 13 13 12 13 12 13 13 13 13 12 13 13 11 12 12 13 13 13 14 15 16 16 16 17 16 17 19 12 6 7 8 6 5 4 7 9 12 12 12 13 13 14 12 11 10 11 11 9 11 10 9 11 12 12 10 15 7 8 3 8 4 4 3 4 7 3 3 8 9 11 9 11 11 13 15 18 16 17 19 19
12 13 13 13 13 13 13 13 13 13 13 13 13 13 14 13 12 12 12 13 14 11 11 12 13 13 14 15 16 15 17 17 15 17 6 13 5 4 5 5 6 7 10 11 11 12 13 11 13 13 12 11 11 12 13 10 12 13 11 12 13 12 13 2 2 5 2 8 2 4 2 2 5 5 2 9 9 11 12 12 12 14 14 14 18 17 17 18
15 13 13 13 13 13 13 13 13 13 13 13 13 13 13 13 13 12 12 12 13 12 10 11 12 12 14 15 15 17 15 15 15 4 12 10 5 1 5 8 11 12 13 14 13 12 12 13 12 15 12 13 11 14 13 10 11 10 13 12 10 13 18 7 4 4 2 3 4 3 2 7 7 7 5 7 10 12 11 13 13 15 16 18 17 17 16 17
16 16 13 13 13 13 13 13 13 13 14 13 13 14 14 13 13 13 12 13 12 13 11 11 11 12 14 14 17 14 14 11 5 11 9 8 5 2 5 8 11 12 14 13 12 12 12 12 11 14 13 12 13 13 14 14 12 9 15 15 15 10 8 1 6 4 4 1 3 3 6 5 5 7 7 9 11 9 11 13 14 15 18 21 18 17 17 18
15 16 16 15 13 13 13 13 13 13 14 14 14 13 14 14 13 11 13 11 12 13 12 9 11 10 13 14 16 13 8 5 6 7 4 4 7 4 4 8 12 13 14 15 14 12 13 12 14 13 13 13 16 15 13 15 14 13 14 16 16 13 6 5 4 3 3 6 10 7 4 4 6 5 8 9 8 8 10 7 11 16 19 17 17 16 16 18
16 15 16 16 15 14 13 13 12 13 14 14 14 13 13 13 13 12 11 12 11 12 12 9 9 11 11 15 16 14 12 14 6 10 8 1 7 10 7 10 14 12 14 16 16 14 15 15 16 14 13 15 16 16 14 15 16 14 13 12 16 14 10 3 4 6 7 8 7 5 3 7 5 10 7 12 5 7 4 6 10 19 19 15 17 17 16 17
15 15 15 16 16 15 14 13 13 12 14 14 14 14 13 13 13 12 11 11 11 11 10 6 7 10 11 13 12 8 13 12 11 12 9 4 9 6 9 7 13 13 16 19 17 17 15 18 17 14 14 14 12 16 13 15 17 15 16 14 11 15 11 7 7 5 7 9 7 6 8 9 8 9 6 9 7 7 7 9 13 12 17 16 16 15 15 16
15 15 15 15 15 15 15 15 14 13 12 13 14 13 13 12 12 12 12 11 11 10 11 10 8 8 8 10 11 11 12 11 8 7 2 2 7 9 8 8 13 13 15 18 19 17 16 16 18 16 13 16 15 16 15 13 14 16 15 16 7 8 10 12 9 9 9 6 9 10 11 10 10 9 4 6 5 5 9 11 16 15 16 16 15 15 15 15
15 15 15 15 15 15 15 15 15 14 13 13 13 13 13 12 11 11 11 11 11 11 11 7 7 8 11 11 11 10 0 5 1 3 3 6 10 10 10 10 8 13 16 18 18 19 19 13 17 16 16 14 14 14 12 18 9 13 17 17 13 10 9 10 13 12 10 11 9 12 12 11 10 12 7 1 2 5 10 14 15 15 15 15 15 13 14 15
14 15 14 15 15 15 15 15 15 15 14 13 13 12 12 12 11 11 11 11 11 11 10 8 6 9 11 12 13 12 5 6 6 7 8 10 10 10 10 7 7 11 16 17 20 20 17 17 15 10 13 10 11 15 15 12 13 2 9 16 17 10 10 9 12 12 11 12 12 11 11 10 6 14 6 7 2 5 12 14 15 13 13 13 15 13 12 12
15 15 15 15 15 15 15 15 15 14 15 14 13 12 12 12 11 11 11 11 11 11 10 10 8 8 12 14 15 15 9 14 14 13 13 11 10 11 11 10 9 10 13 16 19 18 18 17 14 15 10 8 13 11 14 12 15 11 7 11 16 13 11 13 12 12 11 11 14 13 11 10 12 4 10 5 5 8 11 10 12 13 11 12 13 12 10 9
15 16 15 15 15 15 15 15 15 14 14 14 13 12 11 11 11 11 11 11 9 10 11 12 10 9 12 16 16 16 18 17 17 16 14 12 12 12 12 12 13 12 13 15 16 18 17 16 16 17 15 10 11 8 3 17 14 14 9 11 13 15 15 16 14 14 14 11 14 12 12 13 7 8 5 3 14 9 12 14 12 12 12 10 11 11 11 10
15 15 15 15 14 15 15 14 15 15 14 13 13 11 11 10 10 11 11 11 10 8 9 10 10 11 12 17 13 15 17 14 17 19 16 12 13 12 13 13 13 12 12 14 15 14 17 15 16 16 12 14 10 8 5 9 13 12 11 10 11 13 13 18 16 16 16 12 14 15 13 8 9 8 2 5 7 8 10 11 15 14 13 13 12 12 10 10
15 15 14 14 14 14 15 15 14 15 14 14 13 11 9 10 10 11 10 11 8 8 9 9 10 11 11 14 15 23 27 20 19 19 15 14 12 11 12 12 14 12 11 14 12 12 13 17 15 14 13 12 15 8 12 10 11 11 12 13 12 13 10 18 19 19 17 14 15 15 15 6 6 11 8 6 6 4 4 11 14 15 12 11 12 13 12 12
15 15 14 14 14 15 15 15 15 15 14 14 13 11 10 9 10 10 10 9 7 5 7 10 9 10 12 15 10 4 7 13 15 17 14 14 13 12 10 13 11 12 12 13 10 9 12 15 15 12 13 14 16 9 10 11 12 13 14 12 15 14 12 15 21 18 20 13 17 17 6 9 7 9 9 8 9 8 2 4 2 6 10 6 8 8 9 10
15 15 15 14 15 15 15 16 15 15 14 13 12 13 13 13 11 11 9 8 6 7 7 6 7 6 8 5 7 11 11 14 9 4 8 10 10 11 10 11 12 12 12 12 14 12 13 13 10 12 15 12 13 12 12 14 12 13 14 12 13 16 15 10 17 17 20 16 14 18 11 8 10 10 8 7 7 14 9 1 8 13 10 13 9 10 12 13
15 15 15 15 15 15 15 15 16 14 14 12 12 12 11 9 10 10 11 10 6 5 7 9 6 6 14 19 16 11 2 3 4 7 7 5 9 10 11 10 11 13 13 15 16 14 14 13 13 14 13 15 16 16 16 17 15 14 14 13 13 17 15 13 15 17 20 16 15 17 9 11 13 10 8 7 10 13 16 15 16 16 14 14 13 12 13 12
16 15 15 15 15 15 16 16 15 14 13 11 10 10 12 12 10 11 10 7 7 4 4 8 11 12 3 5 17 17 10 3 7 9 10 12 12 11 12 11 11 15 15 16 14 17 14 12 13 14 17 18 19 21 18 14 17 15 17 15 14 15 16 14 16 17 20 16 15 16 10 9 14 11 9 8 8 10 8 5 6 8 15 14 13 12 11 10
16 16 15 15 15 15 15 15 14 13 12 11 9 9 8 7 6 8 11 12 15 14 12 8 16 16 20 13 5 7 3 9 12 12 13 12 12 14 15 13 13 15 16 16 17 19 14 16 18 21 19 21 22 21 20 17 14 15 15 17 16 14 16 15 17 18 19 15 17 15 12 15 12 11 10 11 10 8 12 11 15 13 13 12 12 11 9 10
16 16 16 15 14 14 15 15 14 12 9 10 11 9 9 7 8 8 6 14 15 17 20 17 15 16 16 13 15 4 7 4 9 10 13 10 14 14 15 16 15 16 18 20 16 15 15 17 20 21 20 19 20 19 20 21 11 13 15 17 15 14 15 10 11 18 17 15 14 14 13 11 12 9 9 10 9 9 13 14 12 12 11 12 14 14 12 10
16 16 15 16 14 14 15 15 10 10 8 10 9 11 10 11 8 4 3 8 13 18 20 21 16 16 14 18 14 9 8 11 11 11 8 11 14 16 16 17 18 17 18 20 16 17 18 21 20 20 18 17 19 19 20 21 14 15 13 15 16 14 10 13 11 15 15 16 9 13 12 13 12 10 9 10 10 7 9 10 9 10 11 10 13 13 13 12
16 16 17 15 14 14 14 13 12 8 8 9 10 13 13 11 10 7 8 10 13 12 16 19 21 23 20 16 14 13 17 13 11 12 14 13 16 18 16 17 17 17 19 22 19 19 18 17 20 18 19 19 19 20 20 17 11 11 12 14 15 16 14 11 13 17 14 12 10 12 12 11 8 4 8 10 11 11 10 8 10 11 12 13 13 11 12 13
16 16 15 15 14 13 13 10 8 11 10 12 12 13 9 8 7 5 8 7 8 12 16 17 19 19 21 19 12 17 17 11 13 12 14 16 15 18 15 21 19 19 19 25 24 19 17 14 19 17 20 20 19 19 21 13 12 14 14 13 15 14 13 11 11 14 15 9 11 13 8 8 11 12 12 12 8 7 7 11 10 10 11 12 12 13 12 13
16 17 16 14 12 11 10 9 8 10 8 12 12 10 9 8 5 6 7 7 10 15 14 16 13 16 17 14 16 15 15 14 15 12 12 18 17 16 15 15 14 18 20 25 22 19 17 15 19 19 21 20 19 18 21 14 13 13 16 14 14 12 16 12 15 17 12 14 14 16 9 8 10 10 9 9 8 9 9 13 13 13 12 14 14 14 13 13
17 17 14 10 9 8 5 7 7 8 9 9 7 4 7 5 5 4 6 4 9 9 13 16 11 14 12 18 16 15 13 16 15 14 11 16 16 15 11 14 13 19 22 24 18 12 14 16 22 21 20 20 20 18 19 16 12 12 13 14 13 18 16 18 18 17 15 15 15 18 13 7 9 10 11 11 11 13 13 13 14 13 12 12 12 13 12 12
16 15 12 8 8 7 7 4 8 7 8 3 7 8 2 5 4 3 5 6 10 8 15 8 15 8 14 17 17 15 13 14 11 15 16 14 18 16 14 14 14 11 15 12 11 14 14 19 20 21 22 21 18 16 17 19 13 11 12 11 11 13 18 16 19 16 11 11 12 17 15 7 8 10 13 14 14 16 15 12 12 12 14 13 12 13 13 12
14 12 9 7 7 7 8 8 7 8 4 3 8 2 4 2 3 1 5 4 5 10 12 12 10 9 14 17 21 17 14 9 16 18 17 13 16 16 16 19 17 17 18 16 18 12 19 21 24 24 20 17 16 15 18 21 14 9 13 14 8 10 13 15 15 14 12 13 13 15 19 14 10 12 14 11 13 15 15 16 15 14 15 14 14 12 12 12
13 10 7 7 9 11 10 7 7 7 5 5 4 4 3 6 5 4 4 6 5 5 5 13 9 10 12 19 21 19 19 9 14 17 17 13 16 10 10 17 20 19 21 18 13 13 15 17 15 16 15 15 15 17 16 20 16 12 16 14 9 8 12 15 14 14 14 12 11 15 18 13 8 12 15 14 13 14 14 16 17 15 15 15 13 13 12 12
12 9 8 9 9 7 5 7 7 3 4 2 2 2 4 4 3 4 5 7 4 5 8 7 10 13 15 19 18 20 21 10 10 17 17 14 19 17 13 10 19 17 16 16 16 15 12 11 15 13 16 14 15 15 14 19 19 9 11 15 11 11 11 11 11 11 10 11 14 16 18 15 11 14 14 13 12 14 13 12 13 14 16 15 14 14 12 11
10 8 9 7 7 3 5 5 4 1 1 2 5 3 5 2 5 5 9 0 4 4 7 12 14 15 20 20 17 18 19 15 16 21 18 17 17 14 12 12 17 15 15 16 18 15 12 13 13 14 16 14 15 15 15 18 15 13 10 13 12 11 9 10 10 12 12 11 14 16 16 19 15 10 12 12 11 14 15 15 16 17 18 15 14 13 13 13
9 8 9 8 6 4 6 1 4 2 4 1 6 3 4 4 4 7 4 5 5 6 11 8 14 15 20 20 16 19 16 17 15 18 19 17 17 16 15 14 17 18 17 18 17 18 16 16 14 15 16 20 17 16 14 17 16 12 13 15 14 11 8 10 11 12 13 11 12 17 16 13 17 7 16 18 18 21 19 14 15 18 17 16 15 16 13 13
10 10 11 9 9 6 5 5 3 3 4 5 3 4 4 6 6 4 8 5 1 4 5 13 14 18 19 20 18 20 18 15 17 17 21 20 17 19 18 17 22 16 16 19 18 17 11 13 18 16 15 15 18 16 15 17 16 15 15 15 14 13 12 11 13 8 9 11 10 14 17 14 7 10 16 20 21 18 17 18 19 16 16 17 16 16 13 13
10 11 9 5 6 4 1 2 2 3 5 4 5 3 3 7 5 3 4 2 6 6 12 9 15 18 20 16 20 19 14 15 19 16 20 17 18 17 17 18 22 22 14 16 16 16 12 15 18 20 14 18 17 14 15 14 16 14 14 14 13 12 10 10 11 11 12 11 10 12 17 10 12 6 11 12 16 18 16 14 16 18 15 14 15 14 13 13
11 11 10 5 5 4 4 4 4 2 5 4 4 6 6 7 6 6 5 2 1 8 10 14 10 18 20 18 21 19 13 13 18 19 19 18 17 17 18 17 23 18 15 15 14 9 17 10 15 19 10 18 15 16 15 18 15 13 13 12 13 13 9 10 6 9 12 10 11 8 3 4 3 3 2 9 14 14 16 15 16 18 18 16 15 14 14 12
10 6 6 5 5 3 4 3 4 4 5 5 6 7 9 4 4 1 2 1 2 6 14 16 10 17 17 15 19 19 17 11 20 16 16 19 18 18 19 15 19 23 16 14 13 12 14 11 19 17 14 19 16 17 14 15 12 13 14 15 13 11 12 5 3 5 1 7 9 5 10 8 5 5 5 11 14 15 17 16 17 17 19 18 16 14 14 14
7 1 5 5 6 4 4 4 4 4 4 6 6 8 7 4 3 1 2 3 3 6 10 4 11 13 17 16 17 20 15 15 19 15 14 18 16 19 20 19 20 23 18 14 14 11 12 11 18 16 18 18 18 16 12 15 10 11 15 13 11 12 12 8 6 6 6 10 6 11 14 12 10 6 10 12 15 17 17 20 19 19 20 17 15 15 15 15
6 5 6 4 3 4 3 4 4 4 5 6 9 12 4 6 3 6 3 6 6 6 6 6 10 16 16 16 17 19 14 14 19 16 14 18 12 20 20 16 21 20 19 18 10 13 12 12 15 20 15 16 18 17 14 15 18 11 13 8 13 11 13 10 5 10 11 9 7 12 13 13 13 9 15 15 16 17 18 19 19 20 19 17 16 17 16 16
6 6 5 4 5 3 3 3 5 6 6 8 9 10 1 4 5 5 5 8 8 7 7 8 7 13 13 16 18 18 18 14 21 16 14 15 13 20 21 16 19 21 19 17 12 11 13 9 10 14 14 17 16 16 14 14 17 17 13 15 14 8 11 13 9 7 9 8 8 13 14 10 13 10 19 18 17 18 18 19 19 21 20 17 16 16 17 16
6 5 3 7 5 3 4 4 6 6 6 9 8 7 3 3 6 6 7 8 5 5 5 6 12 12 15 16 20 14 16 17 19 15 14 13 12 22 21 19 16 22 21 18 11 13 7 9 10 13 16 17 15 14 15 14 16 14 10 13 13 7 7 9 7 10 10 8 9 6 10 9 10 12 16 18 19 18 18 19 18 18 17 17 17 16 15 16
5 4 0 4 5 4 3 3 5 7 8 6 7 8 10 5 2 4 9 10 8 5 7 7 9 8 14 17 16 16 12 16 16 13 13 15 12 14 16 17 15 22 20 17 13 12 6 10 9 14 16 16 14 15 15 17 17 12 10 11 12 12 13 13 11 11 10 10 8 9 8 8 6 10 13 14 15 17 19 19 19 20 19 18 16 16 15 14
6 4 1 3 6 5 2 5 5 4 4 8 7 3 4 2 5 9 10 10 12 7 9 12 14 12 15 16 14 16 12 15 15 12 12 13 14 12 17 21 20 20 16 12 12 16 6 6 11 12 13 13 14 17 17 15 17 14 13 12 13 12 11 11 10 11 11 10 10 10 5 5 2 11 10 12 14 14 16 17 16 18 18 17 17 17 15 15
3 6 3 4 6 4 3 7 8 6 6 8 9 10 8 5 5 4 3 6 7 8 7 9 11 11 14 13 16 14 14 13 15 11 14 15 13 13 17 19 19 19 17 13 13 12 11 4 12 12 12 12 13 14 17 17 16 15 16 15 11 13 14 10 9 8 8 10 9 7 7 4 1 6 11 14 16 16 14 15 16 16 16 16 17 17 17 17
4 6 4 2 5 4 4 6 7 6 8 10 10 9 2 3 2 3 4 4 5 5 5 5 5 5 13 12 12 12 14 9 12 11 12 12 10 16 20 18 25 18 16 12 11 13 7 9 11 11 10 11 14 12 15 16 13 12 13 16 13 11 15 12 10 6 6 11 12 9 9 4 5 2 3 10 15 15 16 16 15 15 16 17 17 15 15 17
6 3 5 3 5 4 5 3 6 9 8 9 9 4 4 2 4 5 5 3 6 3 3 6 4 7 11 13 13 12 13 9 10 10 12 12 8 12 21 17 20 16 17 16 11 12 10 9 10 12 14 15 16 14 15 16 16 10 12 17 18 17 16 13 11 10 8 10 15 9 7 6 8 6 9 9 12 14 14 14 14 15 19 18 16 16 16 18
3 5 2 4 5 5 7 8 7 6 8 7 6 6 9 4 3 3 4 5 3 4 3 5 8 9 11 15 13 12 11 12 10 10 12 11 10 10 16 19 18 16 15 10 4 14 7 10 11 10 11 11 10 9 9 11 11 12 13 15 18 19 16 13 9 9 10 8 10 11 8 8 9 11 14 12 12 14 16 15 15 17 18 19 17 15 15 16
3 3 4 4 4 6 7 5 4 3 4 7 5 6 5 6 1 2 1 2 1 6 3 8 9 10 11 13 11 11 11 13 10 13 14 12 11 10 20 19 17 14 12 9 9 9 7 9 12 9 12 11 13 13 12 18 15 16 14 14 15 19 17 14 10 11 8 8 11 9 12 11 8 11 14 15 13 12 13 14 16 16 19 19 19 17 16 16
3 3 5 2 4 4 6 0 4 7 10 4 4 5 8 9 8 4 2 3 6 5 3 8 12 10 10 12 12 9 13 13 13 9 12 10 12 14 15 18 17 14 12 10 9 7 7 5 12 11 10 6 9 10 19 14 16 16 17 14 14 14 16 15 13 13 10 8 8 10 11 13 12 10 11 15 16 17 19 19 15 16 17 16 16 16 18 18
1 5 4 7 5 6 7 11 11 7 7 7 2 6 8 9 8 3 4 4 2 2 5 4 11 13 12 12 9 10 11 11 11 11 9 11 13 15 13 17 16 15 15 11 10 6 5 7 11 10 7 7 4 4 4 12 12 14 17 16 15 16 16 16 14 13 12 10 11 8 9 12 11 12 13 14 14 14 15 15 14 17 19 20 20 20 20 20
5 5 5 8 7 9 8 6 6 2 2 6 4 6 4 6 8 7 7 8 2 7 4 8 11 13 13 11 10 6 3 8 9 7 10 12 12 11 13 12 12 13 13 11 10 8 7 4 7 13 9 8 5 2 5 9 9 12 14 17 17 15 14 14 13 13 13 12 10 8 6 8 7 9 12 14 14 13 15 19 19 19 21 22 22 22 21 20
3 3 5 8 10 7 10 8 7 3 2 3 3 4 3 9 8 7 5 6 7 5 8 3 3 8 7 10 11 8 7 5 7 8 12 13 9 10 9 11 12 13 13 11 9 10 10 4 8 8 8 11 12 9 9 6 6 8 9 11 14 17 17 15 13 13 13 13 13 11 10 8 8 6 8 12 14 17 19 19 18 17 20 23 23 23 23 23
6 4 5 6 5 8 8 8 7 4 5 8 8 8 6 7 7 5 2 5 5 5 6 6 6 4 8 6 8 6 3 6 5 3 5 1 9 13 10 9 11 12 11 10 10 9 10 5 5 6 8 7 12 11 11 8 6 9 9 11 12 11 10 12 14 15 14 13 13 11 11 8 8 8 8 11 14 16 16 17 18 19 20 21 21 22 21 21
Wind_Direction
330 328 330 328 330 330 330 330 329 329 329 325 319 316 303 297 299 304 299 289 308 315 317 316 327 322 322 324 321 320 312 305 299 286 265 253 265 63 14 52 62 325 310 248 259 248 218 211 211 208 211 214 208 228 210 201 228 210 220 231 232 236 241 239 247 243 247 270 127 159 198 228 243 218 208 180 222 246 152 212 153 82 53 92 89 132 144 140
326 325 325 327 325 326 328 328 327 328 327 326 319 310 309 299 291 289 298 297 301 309 313 319 318 326 323 323 319 315 310 297 291 281 264 273 165 233 254 189 227 286 300 236 234 223 221 206 210 200 210 215 196 222 200 196 211 211 218 223 237 228 242 249 271 243 248 237 139 84 132 240 255 316 195 234 190 214 193 201 175 108 101 99 124 136 137 142
320 319 320 324 321 323 323 325 325 326 325 324 321 315 308 307 295 284 286 295 297 305 312 323 320 324 326 320 314 308 298 295 286 270 277 50 114 273 240 227 219 227 247 240 221 229 229 215 205 202 213 222 197 214 199 198 199 216 232 225 230 248 251 319 344 295 277 336 74 224 122 238 257 259 171 239 204 200 209 186 153 129 126 130 131 136 147 147
314 315 314 317 320 318 320 320 322 320 321 320 320 317 312 305 303 295 284 288 295 300 312 309 316 322 315 318 313 304 296 293 276 208 74 67 68 239 256 234 232 235 241 250 266 263 240 244 215 207 213 226 198 218 193 197 202 195 233 238 237 225 244 194 240 261 271 258 262 233 334 258 224 232 232 234 216 201 203 186 173 161 148 140 141 146 153 149
319 315 313 308 314 313 312 317 315 317 316 318 316 315 314 308 301 299 289 280 283 291 300 307 312 314 314 315 300 295 295 289 99 82 73 37 40 249 210 227 225 227 226 237 242 246 249 237 237 209 222 213 222 200 217 207 208 223 227 239 249 252 305 19 215 212 229 135 268 242 245 256 30 254 239 229 233 194 206 179 185 167 151 146 150 152 157 156
320 317 311 308 304 309 309 310 311 311 311 313 313 313 314 313 304 297 295 287 281 291 290 299 311 318 312 307 296 288 282 243 49 101 89 35 334 327 221 198 214 227 218 226 230 231 229 223 218 209 211 226 215 214 201 219 190 234 226 234 240 261 258 238 194 175 185 204 217 219 238 318 270 262 221 227 226 53 351 187 179 151 135 143 146 154 161 162
320 316 311 308 306 303 304 303 308 308 309 308 310 310 313 314 308 299 284 282 277 283 289 298 314 308 311 294 277 265 258 277 273 120 86 248 336 291 292 245 187 212 216 215 219 224 215 217 214 212 214 222 225 221 213 211 208 226 241 214 232 242 226 232 215 133 213 236 221 243 305 252 244 250 202 224 108 130 91 76 78 123 129 148 146 157 161 160
324 322 316 312 309 305 303 301 301 306 304 307 307 311 312 314 311 303 296 288 282 282 288 284 302 301 309 300 298 256 234 249 258 124 112 170 264 281 276 278 178 198 209 213 209 216 213 216 210 214 222 217 213 222 210 217 216 217 234 238 229 217 214 216 216 198 211 209 221 234 240 231 230 251 176 203 129 133 116 119 113 143 144 154 145 156 161 158
322 320 320 312 309 307 303 303 298 300 302 300 305 308 311 314 314 310 304 291 277 268 279 278 283 293 295 281 288 285 265 246 290 357 120 274 312 300 294 264 180 203 209 211 216 216 216 214 219 215 217 222 224 227 213 219 217 221 228 236 223 232 224 227 225 226 210 212 216 217 229 227 226 224 79 1 77 122 136 123 142 137 144 146 149 161 160 154
319 317 317 318 312 308 304 300 300 295 296 297 299 305 309 309 312 310 305 295 275 263 267 266 277 277 270 272 271 266 311 40 100 90 10 321 313 296 272 278 190 208 211 211 213 216 216 214 220 213 242 237 231 229 217 218 236 198 219 235 225 212 226 210 225 211 207 225 195 224 219 222 207 222 146 78 11 149 160 135 134 140 145 153 145 161 152 148
319 316 314 314 315 310 307 304 300 297 292 293 295 302 305 306 305 307 306 298 282 264 257 257 271 270 270 271 261 249 69 261 60 311 324 322 299 280 263 243 244 218 218 213 216 214 218 228 214 226 228 243 237 230 224 210 225 73 243 221 230 216 224 214 215 215 202 207 213 218 227 218 188 226 189 146 220 213 155 148 138 137 149 149 147 153 139 140
319 317 316 313 315 314 310 304 299 296 292 293 294 296 304 304 303 301 302 301 286 261 250 258 253 262 272 270 253 248 292 304 313 301 297 304 284 273 270 264 255 252 226 221 214 214 219 223 227 221 222 199 243 232 223 224 219 223 214 231 219 215 225 220 211 209 202 211 199 211 235 206 209 133 47 6 153 249 132 144 151 146 149 138 145 133 130 131
320 319 318 315 314 315 312 307 301 297 293 288 291 294 297 301 303 300 298 294 278 261 248 245 251 266 274 265 257 269 269 277 286 287 287 280 276 264 254 247 242 243 248 237 220 214 216 223 228 227 231 216 224 212 250 212 213 229 202 236 214 215 222 216 217 211 196 213 189 192 224 208 142 72 25 61 310 213 158 168 147 143 136 123 100 93 92 89
322 320 320 318 315 315 314 310 304 297 291 287 283 292 293 296 300 297 292 293 294 278 262 257 259 269 269 266 272 270 274 273 274 277 273 274 266 257 243 232 233 234 236 244 239 217 215 219 228 240 231 236 230 187 270 203 210 216 209 217 237 211 220 204 206 203 204 195 194 201 234 172 116 116 171 150 210 234 173 135 139 139 132 127 116 101 88 69
320 322 320 319 318 316 315 312 309 301 295 289 284 284 295 290 290 290 291 286 276 261 252 249 249 266 262 272 268 257 245 250 259 259 259 253 246 244 231 222 220 224 226 228 234 231 212 214 223 231 227 221 251 227 213 206 196 210 212 213 219 239 209 194 191 199 204 182 197 208 234 136 152 151 164 175 129 17 251 152 157 145 135 116 122 129 129 141
321 321 319 318 320 319 316 314 310 305 296 290 284 277 274 282 278 279 286 291 299 270 235 244 242 241 270 279 275 43 233 225 235 239 234 233 235 242 224 216 212 214 216 212 230 231 213 206 212 215 225 203 228 232 208 210 199 205 219 209 211 215 231 183 182 191 203 178 198 210 197 109 152 174 154 154 163 142 207 243 69 71 94 109 132 135 132 144
322 318 320 318 320 320 317 314 310 304 298 289 284 272 265 261 266 267 265 263 248 226 221 222 240 232 250 262 280 244 234 218 242 218 219 221 234 232 242 206 201 204 201 206 214 222 197 206 195 224 231 219 208 213 207 208 202 202 204 223 210 207 222 187 165 192 195 200 194 203 225 175 145 169 147 146 147 137 165 115 151 154 146 166 162 148 149 148
320 320 318 320 317 321 318 314 310 304 297 288 278 281 276 263 266 265 250 235 241 221 224 244 266 262 256 240 260 239 66 341 170 249 260 258 232 233 239 215 192 198 187 193 207 213 182 201 196 213 203 216 201 210 211 201 201 194 190 215 206 211 217 186 177 178 200 194 206 195 215 117 132 136 143 137 143 145 156 186 191 166 169 171 163 156 154 151
320 318 318 317 318 318 319 313 307 303 293 287 267 253 255 257 258 249 248 211 199 196 212 203 192 193 51 81 215 242 261 276 288 263 242 228 222 227 223 237 201 187 187 190 183 200 179 202 197 211 205 204 204 205 212 210 201 200 194 201 213 199 200 206 172 179 194 187 209 185 143 125 134 139 129 131 159 177 155 181 243 209 165 158 154 152 144 150
320 319 316 316 316 314 317 312 302 296 291 267 252 239 246 247 217 229 221 220 216 216 236 188 197 223 276 278 219 151 309 243 246 230 238 226 210 201 215 214 198 199 189 195 172 202 173 199 197 204 205 201 205 207 214 223 208 205 198 202 219 204 203 200 182 170 187 193 211 177 146 144 148 158 165 178 171 168 166 192 203 183 153 159 148 132 120 87
318 319 315 313 311 313 311 313 301 287 274 263 263 260 247 245 250 260 231 218 224 229 232 234 203 226 236 258 259 230 294 282 222 234 214 208 207 189 199 201 194 196 197 192 183 187 191 209 209 206 208 203 202 208 212 223 236 221 194 204 215 206 207 151 153 161 188 204 190 158 154 142 148 173 187 176 193 192 178 186 212 174 163 152 148 128 109 109
316 313 316 311 307 309 312 305 308 285 269 266 258 248 258 267 319 9 252 270 235 230 233 238 228 233 238 260 275 309 277 263 261 246 229 206 194 201 179 201 192 198 186 192 183 187 201 211 205 202 205 203 204 206 209 223 206 234 209 198 214 203 183 134 171 176 181 211 178 166 158 153 159 167 186 186 192 191 191 185 195 178 163 161 140 127 128 126
314 314 315 312 306 305 309 303 279 281 263 247 244 244 253 272 298 329 300 284 277 243 233 229 232 233 237 244 252 248 245 238 251 217 210 216 194 211 177 198 192 197 188 194 188 189 202 208 204 194 201 208 202 205 207 210 222 218 221 198 207 202 177 174 167 193 184 211 156 166 155 139 149 169 193 201 200 168 187 193 194 182 171 154 133 147 142 136
315 314 315 306 303 304 306 299 270 252 248 248 251 256 254 263 292 280 267 262 279 248 225 220 230 229 230 227 227 241 239 225 239 237 194 204 205 199 203 199 192 200 193 194 196 197 203 193 199 195 200 207 200 195 207 189 203 217 223 207 206 192 152 175 165 186 193 177 168 174 144 148 165 182 181 176 172 178 186 189 195 168 160 148 150 149 147 141
314 313 309 304 299 312 309 304 267 254 258 249 248 252 247 253 233 252 265 274 248 249 229 235 215 231 229 221 239 235 222 231 243 244 196 197 197 194 211 193 206 201 197 196 198 203 204 194 193 198 199 201 201 192 205 188 201 207 224 223 209 150 183 191 166 184 183 190 187 171 169 192 179 182 172 154 175 179 191 185 182 172 169 163 163 151 145 137
309 310 312 291 291 305 338 270 286 255 217 244 247 254 274 131 256 310 252 255 266 246 176 222 164 222 203 215 206 231 228 229 225 232 233 195 211 207 188 203 210 195 201 190 199 206 199 191 192 198 193 196 200 200 191 189 200 203 202 226 231 168 200 190 173 184 191 192 179 193 207 177 158 203 195 176 188 178 178 189 186 184 171 168 158 151 149 144
310 312 307 294 277 295 264 267 271 303 269 270 27 334 307 99 66 195 225 227 264 226 196 162 166 158 179 192 193 190 209 222 202 211 223 203 210 209 216 195 194 224 194 187 195 200 201 191 189 196 194 197 201 198 178 194 209 210 180 194 273 199 199 181 185 190 198 183 170 208 223 176 180 188 203 192 192 193 183 191 195 183 175 167 153 153 152 143
313 315 302 272 265 249 279 301 291 281 10 264 16 356 93 102 163 158 237 249 256 137 188 162 207 134 201 172 189 190 213 116 178 193 214 193 221 206 233 196 197 198 189 190 199 173 197 193 195 191 189 192 195 190 184 198 217 202 158 186 231 181 185 170 188 195 209 185 193 207 217 233 186 174 184 193 193 188 188 185 192 185 180 166 157 153 150 148
317 306 292 260 278 273 278 273 286 302 28 13 27 283 82 137 213 204 229 240 118 171 37 167 162 161 208 173 185 201 224 228 191 162 188 203 218 221 214 227 192 205 194 193 197 170 204 197 176 177 184 190 192 195 182 191 208 214 154 178 197 180 186 190 201 199 205 200 210 202 208 226 196 176 186 187 206 198 191 189 185 182 175 166 161 155 147 150
313 304 300 294 287 259 245 250 253 336 304 62 102 195 115 128 147 212 200 257 161 199 194 121 197 179 189 170 189 198 219 221 197 143 179 195 199 232 243 246 198 199 182 188 217 187 168 138 175 195 194 198 195 194 187 184 217 128 176 178 190 188 203 202 217 213 207 215 211 207 206 217 219 176 175 173 203 194 188 193 184 177 176 168 168 157 157 150
311 297 290 291 279 317 281 268 20 40 354 225 105 167 142 159 225 208 225 59 303 90 184 158 191 186 183 181 182 193 213 212 162 155 168 191 190 213 216 232 189 201 185 181 214 155 158 170 191 202 203 206 195 185 189 188 200 166 180 193 173 206 193 205 209 215 217 215 216 207 210 210 233 185 180 177 191 207 197 191 183 180 177 167 165 160 157 149
310 290 282 277 297 281 260 294 228 151 147 154 119 147 213 218 182 254 256 128 246 4 290 197 196 183 181 183 184 180 194 199 159 174 168 182 178 194 204 191 184 183 185 181 195 172 185 187 190 191 202 205 178 194 173 188 193 177 183 194 186 170 195 200 204 209 214 220 200 211 207 218 227 199 172 182 193 206 199 191 186 178 172 157 169 158 153 150
301 280 281 269 270 261 259 277 219 186 168 155 168 208 225 268 257 239 256 354 304 7 319 293 192 184 180 182 181 174 195 184 169 181 174 180 184 196 201 203 182 190 178 180 192 183 171 185 185 188 190 204 193 193 164 189 191 183 193 187 185 187 188 198 201 206 216 221 208 214 196 225 221 219 177 188 185 196 192 179 181 174 166 160 167 152 151 151
278 278 268 226 236 239 282 256 216 190 184 179 194 181 251 270 273 63 272 128 318 316 293 281 192 186 178 187 170 173 183 185 166 172 178 175 188 189 196 202 186 193 196 172 203 171 174 183 192 183 189 190 208 196 180 192 182 189 202 196 197 201 183 189 205 195 207 212 199 233 194 209 209 198 163 167 175 182 184 174 166 169 157 167 158 143 148 159
293 274 259 243 229 236 200 186 154 177 235 207 224 235 250 257 274 303 306 40 309 302 291 316 228 180 178 187 162 181 192 159 177 171 182 176 188 188 188 201 188 198 188 178 188 174 196 192 170 191 173 182 196 194 185 192 186 191 209 213 211 211 169 210 203 220 201 208 191 203 198 181 202 16 63 177 175 178 170 158 156 161 165 156 155 155 164 163
298 250 225 239 244 199 184 190 185 177 260 235 238 237 234 252 290 141 311 122 232 294 312 311 249 180 175 172 160 177 202 182 177 176 180 186 184 189 190 193 185 199 191 192 157 192 180 188 170 164 181 184 193 197 202 195 191 181 209 210 209 207 197 194 197 330 324 221 205 174 187 103 105 210 144 202 176 169 157 156 162 157 157 162 160 160 159 162
240 216 232 211 218 188 188 207 199 203 231 252 255 259 261 268 258 317 245 200 264 298 308 236 180 187 172 159 162 189 172 172 176 181 173 185 182 196 186 193 186 194 209 190 167 211 181 159 147 167 185 184 197 204 206 191 213 173 210 203 205 222 239 196 207 173 217 212 197 185 211 181 178 195 182 196 182 168 165 163 166 156 155 164 158 164 166 162
312 275 300 264 93 160 168 198 209 218 246 249 245 252 296 279 195 250 239 249 269 245 276 269 156 199 166 156 169 176 162 187 168 187 174 186 178 190 182 196 189 195 193 191 193 191 196 165 166 187 183 171 189 202 212 199 218 215 202 177 207 181 215 191 212 197 201 211 201 196 208 222 194 184 165 189 188 171 168 162 166 166 170 170 165 169 170 163
278 281 261 168 132 170 167 182 219 233 232 242 254 260 208 251 278 251 255 256 269 301 251 256 206 189 173 158 162 166 173 189 170 182 172 186 187 187 189 196 177 193 202 182 195 178 205 167 164 173 179 168 183 197 202 185 205 229 199 204 213 220 210 203 191 204 206 205 212 199 206 225 204 174 170 182 191 178 177 175 174 174 174 173 170 171 169 166
274 285 271 128 135 140 140 205 238 231 241 250 268 276 344 279 279 280 265 265 270 239 263 313 237 164 175 156 163 161 187 176 176 178 187 169 188 170 194 190 178 186 193 179 188 200 180 173 177 174 185 164 193 193 199 187 188 199 220 207 191 215 206 248 188 218 198 210 201 212 202 218 217 166 177 181 190 181 186 176 174 176 172 172 170 165 160 164
291 283 77 153 124 128 147 254 240 233 241 252 259 274 284 275 303 266 263 256 258 267 271 282 273 189 160 158 170 164 180 158 187 178 175 173 195 161 189 180 179 192 190 177 193 183 167 180 179 169 184 187 193 184 199 191 196 191 202 210 192 184 188 201 204 206 221 202 198 204 218 212 191 149 174 177 189 187 186 183 182 177 174 174 160 157 162 162
285 274 208 168 123 146 229 270 239 226 254 262 278 303 279 298 259 257 254 235 231 244 222 258 253 256 158 168 161 166 180 165 181 174 170 175 157 180 171 181 186 189 178 175 185 175 209 175 173 175 185 181 191 172 209 202 203 196 198 210 202 191 211 201 219 197 216 227 225 220 231 201 328 149 158 178 182 192 187 188 177 176 173 167 160 161 165 164
244 272 68 178 149 188 256 270 264 251 252 281 299 285 278 268 250 289 271 186 218 218 237 233 226 202 153 167 159 179 171 169 178 173 162 171 146 201 153 175 188 185 191 174 200 155 27 215 152 184 169 163 195 176 198 218 203 198 204 226 208 200 205 221 211 207 210 216 226 196 211 147 75 118 186 194 188 190 186 180 173 177 162 155 154 160 163 159
291 283 264 173 176 173 242 282 316 318 308 309 317 313 299 247 275 288 231 199 257 189 227 209 243 193 154 163 166 167 163 163 175 168 167 155 171 189 158 188 191 191 192 168 204 147 191 221 172 170 171 169 191 169 190 205 218 207 202 211 221 209 200 219 242 216 220 223 225 222 208 153 157 142 120 208 179 180 168 167 169 170 157 161 162 156 158 153
293 245 257 206 180 226 255 288 299 304 314 319 321 321 345 225 236 271 319 278 235 262 193 205 199 167 149 159 170 160 164 170 163 167 156 172 155 176 157 189 186 170 204 173 213 141 218 199 178 184 180 182 184 184 187 189 201 201 213 198 211 219 202 196 219 219 220 208 232 231 219 114 130 167 173 188 161 161 162 167 175 177 159 156 162 163 160 157
331 318 167 217 205 218 243 253 260 271 295 313 320 347 354 74 158 277 312 273 255 225 273 159 199 170 151 172 168 156 152 172 183 160 177 159 146 183 173 181 184 177 191 101 183 166 224 208 197 192 190 196 184 187 193 199 182 208 203 209 197 217 218 211 211 226 226 201 225 226 230 135 156 164 176 173 172 167 170 168 172 166 161 154 159 158 161 160
299 280 332 331 298 221 251 253 260 264 282 324 318 358 345 48 25 150 183 281 310 305 142 219 189 176 181 173 153 160 159 166 166 177 174 153 166 160 177 179 182 171 90 120 189 180 227 198 205 221 205 198 194 198 183 190 195 201 205 206 206 202 217 213 206 219 217 213 220 209 201 158 166 175 176 178 166 176 168 159 161 161 165 161 158 158 155 158
309 20 343 29 307 326 330 164 298 306 305 297 284 321 353 29 39 54 242 240 259 261 230 194 185 170 157 143 176 165 165 163 168 168 156 158 158 160 173 177 185 130 137 176 186 211 197 195 198 222 195 78 357 234 184 185 199 195 206 206 209 206 209 216 209 223 200 215 230 196 208 208 187 177 173 180 180 182 171 172 156 160 156 151 148 157 160 160
355 320 305 348 309 311 305 296 296 294 311 332 302 347 4 15 38 12 15 336 302 136 259 192 175 174 157 162 166 158 161 156 164 149 146 154 156 156 167 169 183 151 180 173 193 205 219 204 194 218 200 203 143 348 144 192 190 195 202 205 204 207 210 212 215 215 225 222 243 269 219 220 200 187 180 179 173 180 158 160 154 162 168 162 163 167 166 164
14 339 327 325 293 285 307 305 308 277 333 351 6 19 330 327 40 27 32 357 40 31 340 186 181 173 160 162 153 73 16 139 135 145 146 142 146 169 157 175 157 170 182 180 187 182 238 164 195 190 206 174 167 141 198 217 210 213 201 203 202 208 216 214 218 219 217 232 228 232 230 224 226 197 191 171 174 156 155 163 167 171 172 171 168 170 171 171
313 277 304 314 321 345 329 330 326 317 118 11 334 332 6 38 41 35 35 354 26 26 4 1 158 166 188 173 121 84 40 21 133 128 135 148 156 156 159 173 169 159 178 177 191 168 218 191 168 207 215 199 172 182 210 213 219 238 225 220 210 202 208 205 215 213 214 215 220 226 210 209 200 191 194 154 149 156 161 167 170 175 179 177 174 176 180 175
326 309 297 302 302 317 335 341 335 346 23 1 344 9 14 32 54 28 50 345 310 314 19 338 334 238 178 102 79 51 1 2 46 11 68 236 164 151 170 158 165 169 176 174 180 182 198 202 184 194 205 215 199 191 201 195 213 222 226 218 221 222 222 209 211 214 215 214 220 210 220 203 185 189 184 154 164 166 169 173 175 180 178 181 182 181 179 173